User: anonymous   Login
Location: Unspecified
(0.0000°N, 0.0000°E)
Time: 16:57:20
(UTC+00:00)
Language:

UNISAT 5 - Orbit

View from above orbital plane
View from above orbital plane
View from above satellite
View from above satellite

Ground track
Ground track

The orbit data is extracted from the following two-line orbital elements,

1 39421U 13066F   24106.46942244  .00006743  00000-0  63566-3 0  9992
2 39421  97.5760  80.2071 0026077 236.5749 123.2977 14.93857590564727
Epoch (UTC): 15 April 2024 11:15:58
Eccentricity: 0.0026077
inclination: 97.5760°
perigee height: 568 km
apogee height: 604 km
right ascension of ascending node: 80.2071°
argument of perigee: 236.5749°
revolutions per day: 14.93857590
mean anomaly at epoch: 123.2977°
orbit number at epoch: 56472

The dashed part of the orbit path shows where the satellite is in the earth's shadow,  

DLR